SWA701 KBNA-KMEM

Flight info

Callsign SWA701
Flight time 0h 44m
Altitude 32000
Route DANLS4 DANLS SPKER BLUZZ5
Aircraft B738/M-SDE2E3FGHIRWXY/LB1

Departure

Time 2026-05-06 23:44
Airport Nashville International Airport (KBNA)

Arrival

Time 2026-05-07 00:28
Airport Memphis International Airport (KMEM)
Time Latitude Longitude Altitude Speed Heading
2026-05-06 23:22 36.13277 -86.67299 570 ft 0 kts 111°
2026-05-06 23:32 36.13283 -86.67317 571 ft 2 kts 112°
2026-05-06 23:33 36.13290 -86.67336 573 ft 2 kts 118°
2026-05-06 23:33 36.13301 -86.67351 574 ft 2 kts 179°
2026-05-06 23:33 36.13309 -86.67350 572 ft 0 kts 191°
2026-05-06 23:36 36.13306 -86.67351 572 ft 2 kts 192°
2026-05-06 23:37 36.13274 -86.67356 574 ft 8 kts 187°
2026-05-06 23:37 36.13186 -86.67370 563 ft 19 kts 187°
2026-05-06 23:37 36.13041 -86.67370 568 ft 21 kts 163°
2026-05-06 23:37 36.12916 -86.67276 575 ft 21 kts 158°
2026-05-06 23:38 36.12828 -86.67287 577 ft 11 kts 233°
2026-05-06 23:38 36.12776 -86.67361 581 ft 12 kts 225°
2026-05-06 23:38 36.12738 -86.67429 581 ft 6 kts 257°
2026-05-06 23:38 36.12751 -86.67478 581 ft 7 kts 313°
2026-05-06 23:39 36.12790 -86.67528 580 ft 10 kts 314°
2026-05-06 23:39 36.12846 -86.67601 578 ft 14 kts 313°
2026-05-06 23:39 36.12921 -86.67702 578 ft 18 kts 312°
2026-05-06 23:39 36.13008 -86.67817 577 ft 18 kts 314°
2026-05-06 23:40 36.13074 -86.67910 582 ft 7 kts 293°
2026-05-06 23:40 36.13073 -86.67943 582 ft 2 kts 247°
2026-05-06 23:40 36.13025 -86.67980 577 ft 9 kts 191°
2026-05-06 23:40 36.12930 -86.68005 578 ft 19 kts 195°
2026-05-06 23:41 36.12775 -86.68066 581 ft 28 kts 197°
2026-05-06 23:41 36.12566 -86.68165 581 ft 35 kts 213°
2026-05-06 23:41 36.12328 -86.68227 582 ft 38 kts 198°
2026-05-06 23:41 36.12057 -86.68323 587 ft 44 kts 196°
2026-05-06 23:42 36.11763 -86.68430 597 ft 39 kts 196°
2026-05-06 23:42 36.11709 -86.68462 599 ft 0 kts 227°
2026-05-06 23:42 36.11710 -86.68467 600 ft 1 kts 280°
2026-05-06 23:42 36.11726 -86.68498 621 ft 8 kts 304°
2026-05-06 23:43 36.11774 -86.68607 615 ft 14 kts 313°
2026-05-06 23:43 36.11873 -86.68610 611 ft 38 kts 15°
2026-05-06 23:43 36.12452 -86.68387 583 ft 131 kts 17°
2026-05-06 23:43 36.13528 -86.67971 831 ft 180 kts 14°
2026-05-06 23:44 36.14751 -86.67616 1891 ft 184 kts 13°
2026-05-06 23:44 36.15954 -86.67165 2899 ft 188 kts 13°
2026-05-06 23:44 36.17322 -86.67326 3147 ft 210 kts 341°
2026-05-06 23:44 36.18757 -86.67942 3322 ft 227 kts 342°
2026-05-06 23:45 36.20289 -86.68535 3644 ft 238 kts 342°
2026-05-06 23:45 36.21916 -86.69136 4023 ft 252 kts 342°
2026-05-06 23:45 36.23625 -86.69756 4013 ft 259 kts 342°
2026-05-06 23:45 36.25382 -86.70385 4026 ft 262 kts 342°
2026-05-06 23:46 36.27003 -86.71330 4028 ft 260 kts 320°
2026-05-06 23:46 36.28189 -86.73019 4269 ft 262 kts 298°
2026-05-06 23:46 36.28640 -86.75135 5408 ft 250 kts 268°
2026-05-06 23:46 36.28420 -86.77213 6668 ft 241 kts 261°
2026-05-06 23:47 36.28092 -86.79231 6950 ft 240 kts 259°
2026-05-06 23:47 36.27742 -86.81306 7011 ft 247 kts 259°
2026-05-06 23:47 36.27394 -86.83403 7018 ft 247 kts 259°
2026-05-06 23:47 36.26797 -86.85365 7024 ft 246 kts 244°
2026-05-06 23:48 36.25954 -86.87191 7064 ft 246 kts 244°
2026-05-06 23:48 36.25084 -86.89058 7589 ft 250 kts 244°
2026-05-06 23:48 36.24224 -86.90902 8649 ft 246 kts 243°
2026-05-06 23:48 36.23371 -86.92737 9655 ft 246 kts 243°
2026-05-06 23:49 36.22521 -86.94575 10518 ft 251 kts 243°
2026-05-06 23:49 36.21613 -86.96546 10834 ft 276 kts 243°
2026-05-06 23:49 36.20621 -86.98702 11024 ft 302 kts 243°
2026-05-06 23:49 36.19527 -87.01075 11204 ft 325 kts 242°
2026-05-06 23:50 36.18382 -87.03553 11641 ft 337 kts 242°
2026-05-06 23:50 36.16062 -87.08564 13244 ft 337 kts 242°
2026-05-06 23:50 36.14889 -87.11097 14035 ft 337 kts 242°
2026-05-06 23:51 36.13730 -87.13605 14641 ft 339 kts 242°
2026-05-06 23:51 36.12548 -87.16157 15265 ft 341 kts 242°
2026-05-06 23:51 36.11379 -87.18681 15891 ft 343 kts 243°
2026-05-06 23:51 36.10199 -87.21291 16441 ft 345 kts 246°
2026-05-06 23:52 36.09404 -87.24082 17032 ft 345 kts 256°
2026-05-06 23:52 36.08845 -87.26952 17642 ft 346 kts 256°
2026-05-06 23:52 36.08283 -87.29842 18197 ft 348 kts 257°
2026-05-06 23:52 36.07709 -87.32774 18704 ft 350 kts 256°
2026-05-06 23:53 36.07133 -87.35694 19136 ft 352 kts 256°
2026-05-06 23:53 36.06541 -87.38667 19578 ft 355 kts 256°
2026-05-06 23:53 36.05949 -87.41618 20011 ft 357 kts 256°
2026-05-06 23:53 36.05350 -87.44596 20435 ft 360 kts 256°
2026-05-06 23:54 36.04737 -87.47630 20858 ft 362 kts 256°
2026-05-06 23:54 36.04129 -87.50634 21268 ft 364 kts 256°
2026-05-06 23:54 36.03507 -87.53701 21677 ft 367 kts 256°
2026-05-06 23:54 36.02889 -87.56746 22075 ft 369 kts 256°
2026-05-06 23:55 36.02260 -87.59837 22470 ft 371 kts 256°
2026-05-06 23:55 36.01632 -87.62918 22844 ft 373 kts 256°
2026-05-06 23:55 36.00992 -87.66058 23217 ft 375 kts 256°
2026-05-06 23:55 36.00357 -87.69162 23563 ft 378 kts 256°
2026-05-06 23:56 35.99708 -87.72338 23877 ft 379 kts 256°
2026-05-06 23:56 35.99067 -87.75463 24191 ft 380 kts 256°
2026-05-06 23:56 35.98412 -87.78656 24512 ft 380 kts 256°
2026-05-06 23:56 35.97764 -87.81809 24837 ft 381 kts 256°
2026-05-06 23:57 35.97115 -87.84963 25140 ft 381 kts 256°
2026-05-06 23:57 35.96456 -87.88164 25131 ft 386 kts 256°
2026-05-06 23:57 35.95797 -87.91356 25241 ft 386 kts 256°
2026-05-06 23:57 35.95132 -87.94575 25610 ft 384 kts 256°
2026-05-06 23:58 35.94477 -87.97737 25989 ft 382 kts 256°
2026-05-06 23:58 35.93813 -88.00942 26281 ft 383 kts 256°
2026-05-06 23:58 35.93157 -88.04104 26520 ft 384 kts 256°
2026-05-06 23:58 35.92487 -88.07328 26769 ft 385 kts 256°
2026-05-06 23:59 35.91827 -88.10498 27103 ft 383 kts 255°
2026-05-06 23:59 35.91159 -88.13703 27496 ft 381 kts 255°
2026-05-06 23:59 35.90505 -88.16836 27915 ft 378 kts 255°
2026-05-06 23:59 35.89856 -88.19944 28363 ft 375 kts 255°
2026-05-07 00:00 35.89206 -88.23055 28815 ft 372 kts 255°
2026-05-07 00:00 35.88558 -88.26144 29260 ft 369 kts 255°
2026-05-07 00:00 35.87939 -88.29199 29688 ft 367 kts 256°
2026-05-07 00:00 35.87550 -88.31233 29999 ft 365 kts 256°
2026-05-07 00:01 35.86987 -88.34253 30401 ft 363 kts 256°
2026-05-07 00:01 35.86242 -88.38273 30889 ft 360 kts 256°
2026-05-07 00:01 35.85681 -88.41289 31193 ft 360 kts 256°
2026-05-07 00:01 35.85121 -88.44280 31345 ft 362 kts 256°
2026-05-07 00:02 35.84158 -88.49392 31269 ft 366 kts 256°
2026-05-07 00:02 35.83584 -88.52427 31055 ft 366 kts 256°
2026-05-07 00:02 35.83009 -88.55455 30821 ft 365 kts 256°
2026-05-07 00:03 35.82426 -88.58523 30586 ft 366 kts 256°
2026-05-07 00:03 35.81845 -88.61579 30358 ft 368 kts 256°
2026-05-07 00:03 35.81261 -88.64642 30147 ft 369 kts 256°
2026-05-07 00:03 35.80670 -88.67737 29884 ft 371 kts 256°
2026-05-07 00:04 35.80075 -88.70846 29614 ft 372 kts 256°
2026-05-07 00:04 35.79483 -88.73937 29214 ft 375 kts 256°
2026-05-07 00:04 35.78886 -88.77054 28765 ft 379 kts 256°
2026-05-07 00:04 35.78272 -88.80248 28241 ft 383 kts 256°
2026-05-07 00:05 35.77661 -88.83426 27738 ft 385 kts 256°
2026-05-07 00:05 35.77038 -88.86659 27233 ft 387 kts 256°
2026-05-07 00:05 35.76418 -88.89876 26740 ft 389 kts 256°
2026-05-07 00:05 35.75789 -88.93133 26240 ft 390 kts 256°
2026-05-07 00:06 35.75162 -88.96378 25641 ft 394 kts 256°
2026-05-07 00:06 35.74522 -88.99680 25055 ft 393 kts 256°
2026-05-07 00:06 35.73887 -89.02946 24474 ft 387 kts 256°
2026-05-07 00:06 35.72997 -89.06019 23910 ft 383 kts 246°
2026-05-07 00:07 35.71640 -89.08835 23298 ft 386 kts 238°
2026-05-07 00:07 35.69852 -89.11315 22866 ft 380 kts 231°
2026-05-07 00:07 35.68064 -89.13553 22750 ft 360 kts 231°
2026-05-07 00:07 35.66348 -89.15722 22639 ft 342 kts 232°
2026-05-07 00:08 35.64744 -89.17774 22464 ft 327 kts 232°
2026-05-07 00:08 35.63189 -89.19780 21943 ft 323 kts 232°
2026-05-07 00:08 35.61634 -89.21791 21337 ft 322 kts 232°
2026-05-07 00:08 35.60115 -89.23748 21150 ft 310 kts 232°
2026-05-07 00:09 35.58641 -89.25640 20676 ft 308 kts 232°
2026-05-07 00:09 35.57155 -89.27549 20196 ft 305 kts 232°
2026-05-07 00:09 35.55705 -89.29410 19740 ft 302 kts 232°
2026-05-07 00:09 35.54254 -89.31270 19291 ft 300 kts 232°
2026-05-07 00:10 35.52803 -89.33129 18815 ft 298 kts 232°
2026-05-07 00:10 35.51380 -89.34949 18374 ft 296 kts 231°
2026-05-07 00:10 35.49963 -89.36764 17883 ft 294 kts 231°
2026-05-07 00:10 35.48552 -89.38572 17357 ft 293 kts 231°
2026-05-07 00:11 35.47133 -89.40389 16829 ft 292 kts 231°
2026-05-07 00:11 35.45737 -89.42177 16315 ft 292 kts 231°
2026-05-07 00:11 35.44328 -89.43981 15839 ft 291 kts 231°
2026-05-07 00:11 35.42934 -89.45764 15350 ft 290 kts 231°
2026-05-07 00:12 35.41531 -89.47558 14891 ft 289 kts 231°
2026-05-07 00:12 35.40155 -89.49317 14438 ft 288 kts 231°
2026-05-07 00:12 35.38766 -89.51091 13958 ft 288 kts 231°
2026-05-07 00:12 35.37364 -89.52882 13450 ft 288 kts 231°
2026-05-07 00:13 35.35985 -89.54642 12973 ft 287 kts 230°
2026-05-07 00:13 35.34617 -89.56386 12636 ft 285 kts 230°
2026-05-07 00:13 35.33238 -89.58141 12365 ft 283 kts 230°
2026-05-07 00:13 35.31880 -89.59872 12081 ft 285 kts 230°
2026-05-07 00:14 35.30500 -89.61629 11793 ft 282 kts 230°
2026-05-07 00:14 35.29149 -89.63347 11492 ft 277 kts 230°
2026-05-07 00:14 35.27832 -89.65018 11227 ft 271 kts 230°
2026-05-07 00:14 35.26544 -89.66655 10969 ft 267 kts 230°
2026-05-07 00:15 35.25251 -89.68298 10709 ft 262 kts 230°
2026-05-07 00:15 35.24001 -89.69884 10461 ft 258 kts 230°
2026-05-07 00:15 35.22775 -89.71441 10212 ft 254 kts 230°
2026-05-07 00:15 35.21549 -89.72997 10056 ft 249 kts 230°
2026-05-07 00:16 35.20369 -89.74493 10015 ft 242 kts 230°
2026-05-07 00:16 35.19215 -89.75954 9751 ft 238 kts 230°
2026-05-07 00:16 35.18042 -89.77445 9368 ft 247 kts 230°
2026-05-07 00:16 35.16849 -89.78957 9243 ft 248 kts 230°
2026-05-07 00:17 35.15660 -89.80462 9120 ft 245 kts 230°
2026-05-07 00:17 35.14483 -89.81948 9033 ft 236 kts 230°
2026-05-07 00:17 35.13375 -89.83346 9014 ft 225 kts 230°
2026-05-07 00:17 35.12296 -89.84707 8877 ft 218 kts 230°
2026-05-07 00:18 35.11192 -89.85955 8618 ft 222 kts 216°
2026-05-07 00:18 35.09707 -89.86596 8464 ft 227 kts 195°
2026-05-07 00:18 35.08131 -89.86686 8275 ft 230 kts 187°
2026-05-07 00:18 35.06501 -89.86642 7971 ft 234 kts 186°
2026-05-07 00:19 35.04880 -89.86595 7762 ft 233 kts 186°
2026-05-07 00:19 35.03257 -89.86559 7545 ft 232 kts 186°
2026-05-07 00:19 35.01656 -89.86527 7348 ft 231 kts 186°
2026-05-07 00:19 35.00033 -89.86502 7096 ft 232 kts 186°
2026-05-07 00:20 34.98429 -89.86479 6890 ft 231 kts 186°
2026-05-07 00:20 34.96818 -89.86457 6667 ft 231 kts 185°
2026-05-07 00:20 34.95217 -89.86436 6440 ft 231 kts 185°
2026-05-07 00:20 34.93600 -89.86415 6211 ft 231 kts 185°
2026-05-07 00:21 34.92004 -89.86395 5975 ft 231 kts 185°
2026-05-07 00:21 34.90407 -89.86375 5734 ft 231 kts 184°
2026-05-07 00:21 34.88799 -89.86355 5450 ft 233 kts 184°
2026-05-07 00:21 34.87175 -89.86334 5233 ft 231 kts 184°
2026-05-07 00:22 34.85569 -89.86313 4981 ft 232 kts 184°
2026-05-07 00:22 34.83943 -89.86293 4712 ft 232 kts 183°
2026-05-07 00:22 34.82352 -89.86504 4456 ft 227 kts 205°
2026-05-07 00:22 34.81137 -89.87607 4182 ft 220 kts 237°
2026-05-07 00:23 34.80612 -89.89348 3851 ft 218 kts 265°
2026-05-07 00:23 34.80465 -89.91192 3559 ft 221 kts 268°
2026-05-07 00:23 34.80598 -89.92992 3448 ft 217 kts 294°
2026-05-07 00:23 34.81512 -89.94448 3234 ft 216 kts 324°
2026-05-07 00:24 34.82730 -89.95523 3049 ft 217 kts 327°
2026-05-07 00:24 34.83965 -89.96561 3027 ft 218 kts 328°
2026-05-07 00:24 34.85351 -89.97271 3012 ft 213 kts 349°
2026-05-07 00:24 34.86771 -89.97746 3001 ft 210 kts 344°
2026-05-07 00:25 34.88139 -89.98350 3003 ft 206 kts 341°
2026-05-07 00:25 34.89510 -89.98590 3025 ft 199 kts
2026-05-07 00:25 34.90932 -89.98527 2644 ft 215 kts
2026-05-07 00:25 34.92425 -89.98524 2321 ft 214 kts
2026-05-07 00:26 34.93882 -89.98537 2084 ft 199 kts
2026-05-07 00:26 34.95191 -89.98553 1879 ft 184 kts
2026-05-07 00:26 34.96395 -89.98573 1869 ft 161 kts
2026-05-07 00:26 34.97540 -89.98588 1422 ft 164 kts
2026-05-07 00:27 34.98648 -89.98609 1266 ft 157 kts
2026-05-07 00:27 34.99793 -89.98632 915 ft 174 kts
2026-05-07 00:27 35.00986 -89.98660 667 ft 166 kts
2026-05-07 00:27 35.02111 -89.98683 407 ft 158 kts
2026-05-07 00:28 35.03150 -89.98709 320 ft 136 kts 359°
2026-05-07 00:28 35.03702 -89.98716 316 ft 0 kts 358°
2026-05-07 00:28 35.03721 -89.98716 315 ft 18 kts 358°
2026-05-07 00:28 35.03936 -89.98724 308 ft 42 kts 358°
2026-05-07 00:29 35.04159 -89.98706 303 ft 23 kts 36°
2026-05-07 00:29 35.04185 -89.98521 303 ft 29 kts 104°